Кытыл-Дюра

Россия / Республика Саха (Якутия)     60°57′59″N   125°55′10″E
темп.,
°C
ветер,
м/с
пор.,
м/с
влажн.,
%
обл.,
%
осадки,
мм/ч
давл.,
гПа
погр.,
м
4 марта, чт
чт400:00−35з129985 0.0 102219
03:00−36зюз239891 0.0 102352
06:00−34зюз3897100 0.1 1022385
09:00−32з4894100 0.2 1023580
12:00−30з5891100 0.2 1023781
15:00−28зсз5989100 0.3 1023940
18:00−29зсз4892100 0.1 1025968
21:00−29зсз4993100 0.2 1027953
5 марта, пт
пт500:00−30зсз4993100 0.1 1029937
03:00−31з41093100 0.1 1031590
06:00−32з31095100 0.0 1032420
09:00−32з31094100 0.1 1033511
12:00−29з4892100 0.0 1033580
15:00−25з5987100 0.0 1032702
18:00−27з389080 0.0 1032216
21:00−30зюз239342 0.0 103434
6 марта, сб
сб600:00−32зюз23970 0.0 103340
03:00−33зюз2310035 0.0 103329
06:00−34юз229967 0.0 103222
09:00−30юз239641 0.0 1032107
12:00−23зюз23870 0.0 1028317
15:00−19зюз13790 0.0 1026522
18:00−23в11890 0.0 102520
21:00−26юв11920 0.0 102620
7 марта, вс
вс700:00−27ююв11940 0.0 102419
03:00−27юв11930 0.0 102419
06:00−27ююв11920 0.0 102419
09:00−23юв11907 0.0 102348
12:00−15ю128862 0.0 1020369
15:00−11ю138680 0.0 1017574
18:00−14юв1294100 0.1 101621
21:00−17юв129788 0.1 101622
8 марта, пн
пн800:00−16юв129795 0.1 101342
03:00−15вюв229697 0.3 101157
06:00−14юв1297100 0.2 100956
09:00−13ююв1395100 0.5 1008206
12:00−9ююз1291100 0.2 1006373
15:00−7ссз0193100 0.4 1006260
18:00−9всв1297100 0.4 100732
21:00−11с1197100 0.8 100930